GSAT-17

Last updated on Jan. 16, 2021, 6:28 a.m. UTC

1 42815U 17040B   21015.73938162 -.00000264  00000-0  00000-0 0  9993
2 42815   0.0861 275.8726 0005724 346.8077 212.4056  1.00272226 12956
UTC
Height (km)
Latitude
Longitude
Inclination
Orbital Period
UTC large
Height (km)
Speed (km/s)
/
Latitude / Longitude
Inclination (degrees)
Orbital Period (minutes)
Azimuth
Elevation
Range (km)
Doppler Factor
iOS Compass Heading
iOS Angle

Next 30 passes for location: Hong Kong

Rise time Rise Azimuth (degrees) Set time Set Azimuth (degrees) Duration Max altitude (degrees)

No matching passes for this satellites